Wind_Speed
68 71 74 77 81 85 88 90 92 91 90 88 88 86 81 80 81 80 79 78 81 81 79 81 83 86 85 81 77 75 76 79 79 79 80 80 80 78 76 74 73 70 68 68 68 67 64 64 64 63 62 60 58 57 56 55 54 53 50 48 47 45 43 40 36 36 36 36 37 37 37 37 36 36 36 36 34 31 31 31 31 32 32 33 33 32
67 69 71 74 77 80 84 88 90 91 92 90 90 89 84 82 82 81 79 79 83 85 82 85 87 86 83 80 77 74 74 77 78 78 78 80 82 81 78 76 74 72 71 70 69 68 65 64 65 64 62 60 59 58 56 55 54 52 50 48 46 44 43 40 36 36 36 38 41 39 38 38 37 37 37 36 34 32 32 32 32 32 33 33 33 32
64 66 68 71 74 77 80 84 88 90 92 92 92 90 86 84 83 81 79 81 85 87 87 88 87 83 82 81 78 75 76 78 78 78 78 79 82 81 78 77 75 74 72 71 69 68 66 65 66 64 62 60 59 57 55 55 55 52 50 49 47 45 45 40 36 36 37 41 45 42 38 37 36 37 38 36 34 33 33 33 33 33 33 33 33 33
61 63 66 69 71 74 77 81 84 88 91 92 92 91 88 86 83 82 83 84 86 89 90 88 85 84 83 81 79 78 78 79 79 78 77 77 79 80 80 78 76 75 74 72 71 69 67 67 67 64 62 60 58 57 55 55 55 53 51 50 48 47 45 40 37 36 38 45 49 43 38 37 36 37 38 37 35 35 34 34 34 33 33 34 34 34
57 60 64 67 69 72 75 78 81 84 88 91 92 92 91 87 85 85 86 84 85 89 91 88 86 86 83 81 80 79 80 81 79 77 76 76 76 79 81 80 78 77 75 74 73 71 69 70 69 66 64 61 58 57 56 55 55 54 52 50 49 48 45 41 38 39 41 49 51 44 40 40 38 38 39 37 36 36 36 35 35 34 34 34 35 35
55 58 61 65 67 70 72 75 79 82 85 89 91 92 92 89 88 88 86 84 87 90 91 90 88 85 82 81 81 82 84 83 80 77 75 75 75 77 80 81 80 78 77 75 74 73 71 71 71 69 66 62 59 58 57 57 57 54 51 51 49 48 46 42 40 41 45 51 52 46 43 42 40 40 41 40 38 38 37 36 35 35 34 35 35 35
54 56 59 61 65 68 70 73 76 80 83 86 89 91 93 91 91 90 87 87 89 90 91 91 88 84 83 83 82 84 86 84 81 78 75 75 75 75 76 78 80 79 79 77 76 75 73 72 71 70 68 64 61 61 61 60 57 54 52 52 50 48 47 44 42 44 48 52 53 48 44 43 41 41 42 41 40 39 38 37 36 35 35 35 35 35
52 54 57 59 62 65 68 71 74 77 81 83 86 89 92 93 93 92 89 89 90 91 90 89 87 86 85 83 83 85 86 84 83 80 76 74 74 73 73 75 78 79 80 79 78 77 75 73 72 71 70 68 66 66 65 62 58 55 54 53 50 48 47 45 44 46 49 52 53 48 44 44 42 41 43 42 40 40 39 38 37 36 36 35 34 34
49 52 55 58 60 64 66 69 72 76 79 81 83 88 90 92 93 93 92 91 92 92 89 87 89 88 84 82 84 86 85 84 83 80 77 75 73 73 72 73 75 77 79 80 80 79 77 75 74 72 71 70 69 69 68 65 60 57 55 53 51 49 48 46 45 47 50 52 53 49 45 44 42 41 43 43 41 41 39 38 37 36 36 35 34 34
45 48 53 56 60 62 64 67 70 74 77 78 82 86 87 90 92 93 93 92 92 92 87 86 89 86 83 84 86 86 84 82 81 79 78 77 75 74 74 74 74 75 77 79 80 81 80 78 76 75 74 72 71 69 69 67 62 58 57 54 52 51 49 46 46 48 50 51 52 50 47 45 43 42 43 44 42 41 39 38 37 36 36 35 34 34
42 45 50 54 58 60 62 64 67 71 74 76 80 83 85 88 90 93 94 93 93 89 85 86 89 86 85 87 87 85 83 81 80 81 82 82 80 77 76 75 74 74 75 77 79 81 81 80 78 77 76 74 72 69 69 68 63 59 58 55 53 52 48 47 48 50 51 52 53 52 49 47 45 43 44 44 43 42 40 38 37 36 36 34 34 34
39 42 46 50 54 57 60 62 64 67 70 74 78 81 83 86 88 91 93 94 91 85 83 87 90 89 88 87 85 83 83 84 84 85 86 85 82 78 76 74 73 73 73 75 77 79 81 81 80 79 77 76 73 71 69 68 65 61 59 57 55 52 49 49 50 50 51 52 54 54 52 48 46 45 45 46 44 43 41 38 36 36 35 34 34 35
37 40 42 45 49 52 56 59 62 64 67 71 75 78 82 83 86 88 89 91 88 82 85 90 91 90 87 85 86 86 86 88 86 85 86 85 82 80 77 75 74 74 74 74 75 77 79 80 80 79 78 77 75 72 71 70 67 63 61 59 55 53 52 51 51 51 52 54 55 56 53 50 48 46 46 46 44 42 40 37 36 36 35 34 35 36
34 37 39 41 44 48 52 56 59 62 64 67 71 75 79 81 83 83 84 86 83 83 89 94 94 91 86 86 89 87 87 87 85 85 85 85 84 82 79 77 75 74 74 73 73 75 76 77 78 78 78 77 75 73 72 71 68 65 62 60 57 55 54 53 52 52 54 55 57 57 54 50 48 46 46 46 44 42 39 36 35 35 34 35 36 36
30 33 35 37 41 44 47 51 55 58 60 62 65 70 74 77 78 79 82 83 82 87 94 97 95 91 86 88 88 86 86 87 87 88 87 85 84 82 80 78 76 75 73 73 73 73 74 75 76 77 76 76 75 74 72 70 68 65 63 61 58 57 56 55 54 54 55 58 59 57 53 50 48 46 46 46 43 41 39 36 35 35 35 35 36 34
27 28 30 33 38 40 43 46 49 52 56 59 62 64 67 72 77 79 82 82 82 90 96 96 94 88 85 87 86 85 87 88 89 89 86 84 83 83 81 80 77 75 73 72 72 72 73 73 74 74 74 73 73 73 71 69 67 64 62 61 59 58 57 55 54 55 57 59 58 56 53 50 48 46 46 45 42 40 38 36 35 36 36 35 35 33
24 25 26 29 34 36 39 42 45 48 52 56 58 60 63 70 74 75 77 78 82 89 92 90 88 85 85 86 85 87 88 89 89 89 87 85 84 83 82 81 79 76 73 72 72 72 72 72 71 71 71 70 70 70 68 66 65 63 62 60 58 58 56 55 55 57 59 59 57 54 51 49 47 46 46 44 41 39 37 36 35 36 36 35 34 32
21 23 24 26 29 32 35 39 42 45 48 51 55 58 62 64 64 65 70 75 80 82 81 80 82 84 85 85 85 88 90 90 90 89 88 87 85 84 82 81 80 77 74 72 71 71 71 71 70 69 68 67 67 67 66 64 63 62 61 58 57 56 54 55 57 59 59 57 55 52 50 48 47 46 45 43 41 39 38 36 36 36 35 34 33 31
19 21 22 24 26 29 32 36 39 42 45 48 51 54 58 59 59 63 69 75 77 74 72 75 78 81 83 83 86 90 91 92 91 89 89 89 87 85 82 80 79 78 75 72 70 70 69 70 69 67 66 65 64 65 64 63 62 61 59 57 56 55 55 56 58 58 57 55 53 51 48 46 46 45 44 42 40 39 38 37 36 35 34 33 33 31
16 18 19 21 23 26 29 33 36 39 42 45 47 50 54 57 61 65 68 72 73 69 70 75 76 78 81 84 87 90 92 93 91 90 90 90 88 86 82 80 78 77 76 73 70 68 67 67 67 66 65 64 63 63 62 62 60 58 57 56 55 55 55 56 56 55 54 53 51 48 45 44 43 42 42 41 39 38 37 37 36 35 33 32 32 30
13 15 17 18 21 23 27 30 33 37 40 43 45 48 51 56 61 64 65 65 66 66 68 71 71 75 82 85 87 90 92 93 92 90 90 90 89 86 83 80 78 76 75 73 70 67 65 65 65 65 64 63 62 61 61 60 58 56 55 55 54 55 55 54 52 52 52 51 48 45 42 41 40 40 40 40 39 37 37 37 36 34 32 32 31 29
11 12 14 15 18 21 24 27 31 34 37 40 43 45 49 53 56 59 59 58 60 64 67 69 70 75 82 85 86 90 93 94 93 91 90 90 89 87 85 81 77 74 73 72 70 66 64 62 61 62 62 61 61 59 59 58 56 54 53 53 53 54 52 50 49 50 50 47 44 42 40 39 38 38 39 40 38 37 37 37 36 33 32 32 31 28
8 9 11 13 15 18 21 24 27 31 34 37 39 42 44 47 50 54 55 55 58 62 65 68 71 74 79 82 85 90 93 94 95 93 90 90 89 88 85 81 76 72 70 70 69 66 63 60 59 59 60 60 59 58 57 56 55 53 52 52 52 50 48 47 47 48 47 44 42 41 38 37 36 37 39 40 38 36 37 37 34 32 31 32 30 27
5 7 8 10 12 14 16 20 23 27 30 33 35 38 39 41 44 48 51 53 55 58 62 65 68 72 78 82 86 90 93 95 96 93 90 89 88 87 85 81 76 71 67 67 68 66 62 59 57 56 57 57 57 56 56 55 53 52 52 50 48 46 46 46 45 45 44 42 41 40 38 37 36 36 39 39 37 36 37 35 32 31 31 32 29 26
4 4 5 7 8 10 12 16 19 23 26 28 31 33 34 36 38 42 46 48 49 53 59 63 66 72 79 84 87 91 94 96 96 93 90 88 88 88 85 81 76 69 65 64 66 66 63 59 56 54 53 54 55 55 54 53 53 52 49 47 45 45 46 44 43 43 43 42 41 40 38 38 37 37 39 38 36 36 35 33 30 29 31 31 27 25
5 4 4 4 5 7 10 12 15 19 21 24 26 28 29 31 33 35 39 41 46 53 59 61 66 74 81 86 89 92 94 95 95 93 91 89 88 87 85 81 75 69 64 62 63 64 62 58 55 52 51 52 54 54 53 52 51 49 47 46 46 46 45 43 43 43 42 41 41 40 40 39 39 39 38 36 35 34 33 30 28 29 30 29 26 25
6 4 3 3 4 5 7 9 11 13 16 18 21 23 25 26 27 30 35 41 49 54 58 62 68 77 84 88 90 92 93 95 96 94 92 89 88 87 84 80 74 69 64 61 60 62 61 57 54 52 50 51 52 53 52 51 50 48 48 47 47 45 43 42 42 42 41 41 41 41 41 41 40 38 35 34 33 32 30 27 27 29 29 27 26 26
4 3 1 1 1 2 3 5 7 9 11 13 16 19 22 23 26 31 37 43 48 51 56 63 71 79 85 88 89 89 91 94 95 94 91 88 85 84 82 78 74 69 63 59 58 60 59 57 54 52 50 49 50 52 51 50 49 49 48 47 46 44 43 42 42 42 42 41 41 42 42 41 38 35 33 33 32 30 28 27 28 28 27 26 26 26
7 4 3 3 4 3 1 2 4 6 8 10 13 16 19 22 26 30 36 40 44 50 57 64 71 78 82 83 84 86 89 92 94 92 89 85 82 81 80 77 72 68 62 58 56 58 58 56 54 52 49 49 50 51 51 50 49 49 48 46 44 43 43 43 43 42 41 41 43 44 41 38 34 33 32 32 30 28 27 27 27 27 26 27 27 25
11 9 8 7 7 6 4 2 3 5 7 10 12 14 17 21 25 29 34 39 45 51 57 64 71 74 74 76 80 84 87 90 90 88 85 81 79 79 78 75 70 66 61 57 55 57 58 57 55 51 49 48 49 50 50 50 49 48 47 46 45 44 45 44 42 41 42 43 44 41 38 35 33 32 31 30 29 28 27 27 27 27 27 27 26 24
14 13 12 11 10 9 7 4 4 5 8 11 13 15 18 22 27 31 35 40 45 50 56 62 66 65 66 71 77 80 83 85 85 84 82 78 77 77 75 72 69 65 61 57 56 57 58 56 54 50 48 48 49 50 50 50 50 49 47 46 45 45 44 42 41 42 43 43 41 38 35 33 32 31 30 29 29 28 27 27 27 27 27 26 25 23
17 15 15 14 13 11 9 7 6 7 9 12 14 16 19 22 27 31 35 39 43 47 51 54 55 55 59 66 71 74 78 81 82 82 81 78 77 75 73 71 68 65 60 56 55 56 57 56 53 50 48 48 49 50 50 50 50 48 45 45 45 44 42 41 42 42 42 41 38 36 33 32 32 31 30 29 29 28 28 28 28 28 27 26 24 23
18 17 17 15 14 13 11 10 10 11 12 12 14 16 18 21 24 27 31 34 38 40 43 46 49 52 56 63 69 73 76 79 81 81 81 78 75 73 72 71 69 64 60 56 55 56 57 55 52 49 48 48 49 50 51 51 49 46 45 45 44 42 41 41 42 42 41 39 36 34 33 33 33 31 30 29 29 29 29 29 28 27 27 25 24 22
18 18 18 17 16 16 14 13 13 14 14 13 14 16 17 19 22 24 26 29 31 34 38 43 48 52 57 62 68 72 75 79 80 81 80 77 73 72 73 72 68 63 60 57 55 56 56 55 52 49 48 49 50 50 50 50 47 45 44 43 42 40 40 41 41 41 39 37 35 34 34 34 33 31 30 30 30 30 29 29 28 27 26 25 23 22
19 19 19 18 19 18 17 16 16 16 16 15 15 17 19 19 21 22 24 26 28 31 36 42 47 52 56 60 66 71 74 77 78 79 79 76 73 72 73 70 66 62 59 57 55 56 55 53 50 48 47 47 47 48 47 45 43 43 43 41 40 41 42 42 40 39 37 35 35 35 35 34 32 31 31 31 30 30 29 28 27 26 25 24 23 22
20 20 20 20 21 20 20 20 19 18 18 17 17 19 21 23 23 24 25 27 29 33 38 42 46 50 54 58 63 68 72 75 77 78 77 73 71 71 71 68 64 61 59 57 55 56 55 53 49 47 45 45 45 45 44 43 43 43 43 42 42 43 42 41 38 36 35 35 35 35 35 33 32 32 31 31 30 29 29 27 26 25 24 23 22 22
22 21 21 21 22 23 22 22 23 22 20 20 20 20 23 26 27 28 29 31 33 38 41 44 46 49 52 57 63 68 72 74 75 76 74 71 70 70 69 66 62 59 58 56 54 55 54 50 48 46 44 45 45 44 43 43 44 44 43 43 43 42 41 38 36 35 36 36 36 36 35 33 32 32 31 30 29 28 27 26 25 24 23 22 22 22
21 21 22 23 23 24 24 24 26 25 22 22 23 22 24 28 31 35 37 38 40 43 45 47 49 50 53 57 62 67 71 71 73 74 72 69 69 69 67 64 60 57 56 55 54 54 52 48 46 45 45 45 45 43 43 44 44 43 43 43 43 40 38 36 35 37 37 37 37 36 34 33 32 31 30 29 28 27 26 25 24 24 23 22 22 21
20 20 21 24 25 26 26 27 27 26 24 25 25 25 26 30 34 39 43 45 47 47 47 48 49 49 51 54 58 61 63 65 68 69 66 65 67 69 66 62 59 57 55 54 54 53 50 48 46 45 45 45 44 43 43 44 43 42 43 42 40 38 36 36 36 38 38 38 37 35 34 33 32 30 29 28 27 26 25 25 25 24 23 22 21 21
20 20 20 22 25 28 29 30 29 27 26 27 27 27 29 31 35 40 45 49 51 50 48 47 46 46 49 51 53 53 53 56 58 57 59 65 68 67 65 62 58 57 55 54 53 52 50 47 46 45 45 44 43 43 43 43 41 41 41 39 37 36 35 36 37 38 38 37 35 34 33 32 31 29 28 27 26 26 25 25 25 24 22 21 21 22
19 20 20 21 25 29 31 33 32 31 29 29 29 29 31 33 36 40 45 49 50 49 48 46 44 43 45 47 48 45 44 46 44 41 51 65 68 65 63 61 58 56 55 54 54 52 49 46 45 46 46 45 43 43 43 41 40 40 40 38 36 36 36 36 37 38 37 35 34 34 32 31 30 29 27 27 26 26 26 26 25 24 22 21 21 22
19 20 20 22 26 30 33 34 35 34 32 31 32 33 35 37 39 42 44 46 47 47 47 47 42 36 37 42 43 40 40 42 37 33 46 62 66 64 62 60 57 56 55 55 54 52 49 47 47 48 47 44 44 44 43 41 40 40 39 37 36 36 35 37 38 37 36 35 34 33 31 30 29 29 28 28 27 26 26 25 24 23 22 21 22 24
20 22 23 25 29 32 34 36 37 36 34 34 34 36 38 41 41 42 43 43 44 46 46 46 42 36 36 40 36 30 33 37 33 31 45 60 64 62 61 59 57 57 55 55 54 51 49 48 49 48 45 43 44 44 43 42 41 40 38 37 36 36 36 38 39 38 35 34 33 32 31 31 30 30 29 28 27 26 26 25 24 24 23 23 24 26
17 22 25 27 31 33 35 37 38 38 37 37 38 39 42 43 43 43 42 41 43 47 48 47 45 42 41 41 35 28 30 35 32 33 46 60 62 60 59 58 57 56 56 55 53 50 49 49 48 46 43 43 44 44 42 41 41 40 39 38 37 38 39 39 39 37 35 34 33 33 32 32 32 32 31 29 27 27 26 26 25 25 25 26 27 29
13 19 24 28 31 34 35 37 39 40 40 41 41 43 44 45 44 44 43 43 48 52 51 48 47 45 42 40 36 34 35 38 36 35 46 59 60 57 57 57 55 56 55 53 52 50 49 49 48 45 43 44 44 43 41 41 40 39 39 39 40 40 41 40 39 38 36 35 35 34 34 34 33 33 31 30 29 28 27 26 27 27 28 29 30 30
10 16 23 29 32 34 37 39 41 42 43 43 44 45 45 45 45 46 46 49 55 56 51 47 45 44 44 42 39 39 39 41 39 37 44 55 59 56 56 56 55 55 54 52 51 50 49 48 47 45 44 44 44 43 42 41 40 40 41 41 41 41 40 40 39 38 36 36 35 35 35 34 34 33 32 31 31 29 28 28 28 29 29 30 32 33
10 16 24 29 33 36 39 41 43 43 43 44 45 46 47 46 46 47 49 53 59 58 54 50 46 43 45 47 44 42 42 43 44 42 44 52 58 57 56 56 55 54 54 52 50 49 49 48 47 45 44 45 44 44 43 42 42 42 43 43 42 40 39 39 39 38 37 36 36 36 35 35 34 33 33 32 31 30 29 29 30 30 32 32 33 33
12 15 24 30 34 38 41 43 45 45 45 45 46 48 49 48 47 48 49 54 61 61 56 51 46 42 43 46 47 46 44 44 47 47 49 54 58 58 57 56 55 54 52 51 50 49 49 49 47 45 44 44 44 44 44 43 43 43 44 43 42 40 38 38 38 38 37 37 37 37 36 36 35 34 34 33 32 32 31 31 31 31 31 30 30 30
14 16 25 31 35 38 42 45 46 46 46 46 47 48 49 49 49 49 50 55 62 62 56 50 46 42 39 41 45 48 46 44 45 49 54 59 60 59 59 58 56 54 51 50 49 49 49 48 46 45 45 45 45 45 44 43 42 42 43 43 41 39 38 38 39 40 40 40 40 39 38 38 36 36 35 35 34 33 32 31 30 28 27 27 29 29
16 16 23 31 35 37 41 44 47 48 47 46 47 47 48 48 49 50 51 55 61 63 57 50 45 40 36 36 41 47 48 45 43 47 54 60 61 60 60 58 56 54 51 50 50 50 49 48 47 46 46 46 46 45 44 42 42 42 42 41 41 40 40 41 42 42 41 41 41 41 40 39 38 37 36 36 36 35 34 32 31 30 30 32 33 34
19 20 22 28 33 37 40 43 47 48 48 47 47 47 47 47 48 49 51 55 60 63 60 53 45 38 35 34 38 45 49 46 43 45 52 58 60 60 60 59 56 54 51 50 50 50 49 49 47 46 47 47 46 45 44 43 42 42 41 41 41 41 42 43 44 44 42 41 41 41 40 39 39 38 38 38 38 36 34 34 34 34 35 36 36 37
Wind_Direction
234 233 232 231 230 230 230 229 229 229 230 230 230 230 227 224 223 221 218 217 221 221 218 218 217 217 218 216 218 220 221 223 222 220 219 219 221 220 218 219 220 221 221 223 225 226 224 225 227 228 228 228 228 229 230 231 232 234 236 238 240 243 245 246 248 251 255 259 261 261 264 266 267 268 268 268 270 272 275 277 278 278 280 282 285 286
235 233 232 231 230 230 229 229 228 228 228 228 229 229 227 225 223 222 218 216 220 221 218 218 218 217 218 216 217 219 222 224 223 221 219 219 220 220 219 219 219 220 221 222 224 227 226 226 227 228 228 228 227 228 229 231 233 235 237 239 242 244 246 246 247 250 255 259 259 258 260 264 266 267 267 268 269 271 273 275 276 277 279 282 284 285
234 234 233 231 230 230 229 229 228 227 228 228 228 228 227 225 223 222 219 216 218 221 219 218 218 217 217 216 215 217 220 223 223 221 220 219 220 221 220 219 219 220 221 222 224 226 228 228 229 229 228 228 228 228 229 230 232 234 236 239 241 243 245 245 245 249 254 256 256 255 256 260 263 265 266 267 268 270 273 275 275 277 279 282 284 285
234 233 233 232 231 230 229 228 228 227 227 227 227 228 227 226 224 222 220 218 217 220 221 219 218 217 216 216 214 216 220 222 222 221 219 219 219 220 221 220 219 220 221 222 223 225 226 229 231 231 230 229 229 229 229 230 231 233 234 236 239 242 244 244 242 245 248 250 253 255 254 257 261 263 266 267 268 270 273 275 276 277 279 282 285 287
234 233 232 232 231 230 229 228 228 227 226 226 227 227 227 226 224 223 221 219 218 220 221 220 218 217 216 215 214 215 219 221 221 221 220 219 219 219 220 220 219 220 221 222 223 223 224 227 231 233 232 231 231 231 231 231 232 233 234 235 238 240 242 242 240 240 241 245 252 256 255 257 259 262 265 267 269 272 274 275 276 277 279 282 285 287
233 232 231 231 231 230 229 228 227 227 226 226 226 226 226 226 225 224 221 219 219 220 221 220 218 217 215 215 214 215 218 219 220 220 220 220 219 218 219 220 219 219 220 221 223 224 223 225 229 232 233 233 233 233 233 233 233 233 234 236 238 240 241 241 239 239 241 246 253 256 256 257 258 261 265 267 270 272 273 274 275 278 280 282 285 286
232 232 231 230 230 230 229 228 227 227 226 226 225 225 226 225 225 224 221 220 220 220 220 220 219 217 216 215 214 216 217 218 219 219 219 219 219 219 219 220 220 219 219 220 222 224 224 225 227 230 233 234 233 234 235 234 234 235 236 238 239 239 240 240 240 241 244 249 253 255 256 257 258 261 265 267 269 271 272 274 275 278 279 282 284 286
231 231 231 230 230 229 229 228 227 227 226 226 225 225 225 225 225 225 223 220 221 220 219 219 219 217 216 215 214 216 217 218 219 218 218 219 219 219 219 220 220 220 220 220 221 223 223 224 226 227 229 231 232 233 236 236 235 236 236 238 238 238 240 241 241 243 246 249 253 255 256 257 259 261 263 265 268 270 272 274 275 277 279 282 284 286
231 230 230 230 229 229 228 227 227 226 226 225 225 225 225 224 225 224 223 221 221 220 218 218 219 217 215 215 215 217 218 218 219 218 218 218 219 219 219 219 220 220 220 220 220 222 223 223 224 226 227 229 229 231 235 237 236 236 237 238 238 239 240 242 242 243 246 250 253 255 256 257 258 259 262 264 266 268 271 273 275 277 279 282 283 286
233 230 230 229 229 229 228 228 226 226 226 225 225 225 225 224 224 224 224 223 221 220 217 217 219 217 214 215 215 215 217 218 218 218 218 218 218 218 218 218 219 220 220 220 221 221 222 222 223 225 226 227 228 229 233 237 236 236 237 238 238 238 239 240 241 243 246 249 253 255 255 256 257 258 260 263 265 267 269 272 274 276 279 281 283 285
235 232 230 229 229 229 229 228 227 227 226 225 225 225 225 224 224 224 224 224 222 219 217 217 219 217 214 215 216 215 216 217 218 218 219 218 217 216 216 216 217 218 219 220 221 222 222 222 222 224 226 227 228 229 232 236 237 236 237 238 238 238 239 239 241 243 246 249 252 254 255 255 256 257 259 262 264 266 268 270 272 275 277 279 281 283
239 235 232 230 230 230 230 229 228 228 226 225 225 225 225 224 224 224 223 224 222 219 217 218 218 217 214 214 215 214 214 216 217 218 218 218 217 216 215 216 216 217 218 219 220 221 222 223 223 224 225 227 228 229 231 234 236 236 237 238 238 238 239 239 240 243 246 249 251 253 254 255 255 256 258 261 263 265 267 269 270 272 275 277 279 281
241 239 236 233 232 231 231 230 230 229 227 226 225 225 226 225 224 224 223 223 222 218 218 219 218 216 213 212 214 214 214 215 217 218 219 219 218 217 215 215 215 215 216 217 219 221 222 223 224 224 225 227 228 228 230 232 234 235 236 238 238 239 239 239 240 243 246 248 251 253 254 254 255 255 257 260 262 264 266 267 269 271 273 275 277 279
240 239 238 236 234 232 232 231 231 230 229 228 226 225 226 226 225 224 224 223 221 218 219 219 218 215 211 211 213 213 214 215 216 218 219 219 219 217 216 215 214 214 214 216 217 220 222 223 224 225 225 227 228 228 229 231 233 234 235 237 238 238 239 240 240 242 244 247 250 252 254 254 255 255 257 259 261 262 264 266 268 269 271 273 275 278
241 238 236 235 235 234 232 232 232 231 231 230 229 227 227 227 226 225 224 223 219 218 219 218 217 214 210 211 212 212 214 214 215 217 218 219 219 218 217 215 215 214 213 215 216 218 221 222 223 225 225 226 228 229 229 231 232 233 234 235 236 237 238 240 240 241 243 246 248 251 253 254 255 256 256 258 259 261 262 264 266 268 269 271 274 278
246 241 237 235 235 235 234 233 233 232 232 232 231 229 228 227 227 225 224 222 218 218 219 217 216 213 210 211 211 212 214 214 214 216 218 219 219 219 217 216 215 214 213 214 215 217 220 222 223 224 225 225 227 229 230 230 232 232 233 234 235 236 237 238 239 241 242 245 248 250 252 254 255 256 257 258 258 259 261 263 264 266 267 270 274 278
251 246 240 235 235 235 234 234 233 232 231 231 231 231 229 228 227 225 225 223 221 220 219 216 215 213 210 210 210 211 214 214 214 215 217 218 219 219 218 216 215 214 213 214 215 217 219 221 222 223 224 225 225 228 229 229 230 231 231 232 233 234 235 236 237 239 241 244 247 249 251 253 254 255 256 258 258 259 260 261 262 264 266 270 274 278
251 247 242 237 235 234 233 232 232 231 230 229 229 230 230 230 229 227 226 226 225 222 220 217 215 214 211 209 209 211 213 214 214 214 216 217 218 219 218 217 216 214 213 213 214 216 218 220 222 222 224 224 224 226 228 228 228 229 230 230 230 231 232 233 235 237 240 244 247 250 252 253 254 254 255 257 258 257 258 259 260 262 266 270 273 277
250 246 242 238 235 233 231 231 231 231 230 229 227 227 229 229 228 226 225 226 226 222 219 218 215 213 212 209 208 210 212 214 214 212 214 217 218 219 219 217 216 215 214 213 213 215 217 219 221 222 223 224 224 225 226 227 227 228 229 228 228 228 229 231 234 237 240 244 247 250 251 252 253 253 254 256 256 256 256 257 259 262 265 269 273 276
249 247 242 238 236 234 231 230 229 229 229 229 227 225 225 225 226 225 222 222 223 220 217 216 213 210 212 210 208 209 211 214 214 212 213 216 217 218 218 217 216 215 214 213 213 214 216 218 220 221 222 223 223 223 224 226 226 227 227 228 227 227 228 230 233 237 240 243 246 249 250 251 252 252 254 255 255 255 255 255 257 261 264 268 272 276
249 247 244 239 236 233 232 230 229 228 228 228 226 223 222 222 224 225 223 221 220 217 215 215 210 208 210 210 208 208 211 213 214 212 212 214 216 217 218 217 216 215 213 212 212 213 215 218 220 221 222 222 223 223 223 224 225 226 226 227 227 228 228 230 232 236 239 242 245 247 248 249 251 252 253 255 255 255 254 254 256 259 264 268 271 274
249 246 243 239 235 232 231 229 229 228 228 228 228 225 222 221 222 224 224 221 218 215 213 211 207 206 209 208 206 207 209 212 214 212 211 213 215 216 217 217 216 214 213 212 212 213 214 217 219 221 222 222 223 223 223 223 224 225 226 227 228 229 230 231 232 235 238 241 243 245 246 249 251 252 254 255 256 255 254 254 255 258 263 267 270 272
254 247 242 238 235 232 231 230 229 230 230 229 229 227 225 223 221 222 222 218 215 212 210 208 204 204 206 206 205 206 207 210 213 213 210 211 214 216 217 217 216 214 212 211 211 211 214 216 218 220 222 222 222 222 222 223 223 224 224 226 228 229 231 232 232 234 237 239 241 243 246 249 250 252 253 254 255 254 253 253 254 256 261 265 267 269
270 256 246 241 238 235 233 231 230 231 232 232 231 230 228 225 222 221 220 218 213 210 209 206 202 202 203 204 204 205 205 208 212 213 210 210 212 215 216 217 216 214 211 210 210 210 212 215 217 219 220 222 222 223 223 223 223 223 224 225 227 229 230 231 231 233 235 237 240 243 245 248 249 250 251 252 253 252 252 251 252 255 260 263 265 265
297 275 261 251 245 240 235 231 230 230 232 233 233 231 229 226 222 219 219 217 212 210 208 204 200 202 202 202 203 203 203 206 210 212 211 209 211 214 215 216 215 213 210 209 208 209 210 213 216 218 219 221 221 222 223 223 223 223 224 226 226 227 228 229 230 233 235 237 240 243 245 247 247 248 248 249 249 249 248 248 249 253 258 260 261 260
339 323 303 279 258 245 237 233 231 230 231 232 232 231 229 225 221 217 215 212 209 208 205 200 199 201 202 201 202 201 201 204 207 210 210 208 209 212 214 215 214 212 210 207 206 207 208 211 215 217 218 219 220 221 222 222 223 224 224 225 226 227 228 229 231 234 237 240 242 243 245 246 246 246 248 248 246 244 243 243 245 250 254 255 255 253
354 340 318 286 261 245 238 234 232 231 230 230 230 228 226 222 216 210 207 205 205 204 201 197 199 201 201 201 201 199 199 202 204 208 210 208 208 210 212 213 212 211 209 206 204 205 206 208 212 215 217 217 218 219 220 221 222 222 224 224 226 227 229 231 234 237 240 242 243 243 244 244 245 247 247 245 241 239 237 238 242 246 248 248 248 247
21 352 303 219 204 219 229 230 229 226 223 222 222 222 220 215 207 202 201 202 202 200 198 197 199 201 201 200 199 198 198 201 203 206 208 208 206 208 210 211 211 210 208 204 202 203 203 205 210 213 215 215 216 217 218 219 220 221 223 224 226 228 230 232 235 238 240 241 242 242 242 244 246 246 243 239 235 233 232 234 238 241 242 242 242 243
56 52 77 90 92 95 129 199 205 205 204 205 206 209 211 207 201 198 198 198 198 197 198 198 200 201 201 199 198 197 198 200 202 204 207 207 205 206 209 210 209 208 207 203 200 200 201 204 208 211 213 214 214 215 216 217 218 220 222 224 225 227 229 232 234 236 238 239 239 240 242 245 244 241 237 234 231 229 230 233 234 235 236 236 237 240
62 62 66 68 71 69 65 97 152 173 181 183 185 189 195 196 195 194 194 195 196 196 198 199 201 201 199 197 198 197 198 200 201 203 205 206 204 204 207 209 208 207 205 202 199 198 200 202 206 209 211 212 212 212 214 215 217 218 220 222 224 226 228 230 232 233 235 237 238 241 244 243 239 235 233 230 228 228 230 230 230 230 231 233 235 239
62 61 62 62 63 62 61 75 113 154 164 165 170 175 181 187 189 190 191 194 195 196 198 200 201 200 197 196 198 198 198 200 200 201 203 205 203 203 206 207 207 205 204 201 198 197 198 202 205 208 209 210 210 210 212 213 215 217 218 220 222 224 227 228 230 232 234 237 240 242 242 239 234 231 229 227 227 227 227 226 226 227 229 231 235 240
64 63 64 65 65 67 72 88 112 133 141 149 160 168 175 183 188 189 191 192 193 195 197 198 198 196 195 195 197 197 198 199 199 199 201 203 202 202 203 206 206 204 202 199 197 197 198 201 204 206 208 209 209 209 210 212 214 215 216 218 221 223 225 226 229 232 235 238 240 240 237 232 229 227 226 225 225 224 222 223 223 225 227 231 236 242
71 71 71 73 75 77 81 94 110 118 123 137 152 161 170 179 185 188 190 191 192 193 193 193 192 191 192 193 194 195 197 198 198 198 200 202 201 200 202 204 205 202 200 198 197 197 198 200 203 205 208 208 208 208 209 211 212 213 214 217 219 221 223 226 229 232 235 237 237 234 230 226 225 224 223 223 221 220 220 221 223 225 228 231 238 245
78 79 79 82 84 85 88 95 105 111 116 129 144 153 161 171 177 180 184 186 187 187 186 186 186 187 189 192 193 194 195 197 197 197 199 200 199 198 201 204 203 200 198 197 196 196 198 200 202 205 207 208 207 208 209 210 210 211 214 216 219 220 223 226 229 232 233 232 230 227 225 224 223 221 219 218 217 217 219 221 223 225 229 234 242 249
82 83 85 88 90 93 97 100 104 110 117 127 139 147 152 159 165 168 172 175 177 178 178 179 182 185 187 190 191 193 194 196 197 197 199 199 197 198 201 203 202 198 197 196 195 195 197 200 202 206 208 208 208 209 209 209 208 210 213 215 217 219 222 225 228 229 229 227 225 224 223 222 219 216 214 214 215 217 219 221 224 226 231 238 244 249
85 86 89 93 96 99 102 106 109 111 117 126 136 145 149 150 153 156 159 162 164 167 170 173 177 183 186 188 190 192 194 195 196 197 198 197 196 198 202 203 200 197 196 196 194 194 196 198 202 205 207 208 209 210 209 207 207 209 211 213 215 217 220 222 224 224 223 222 221 221 220 218 215 212 212 213 215 217 220 222 225 228 233 239 244 248
89 92 94 98 101 103 106 110 111 111 116 124 131 140 145 145 147 147 147 150 155 159 163 167 174 181 185 187 189 191 193 194 195 197 197 196 196 198 201 202 199 196 196 195 194 195 195 197 201 204 206 208 210 209 206 205 206 208 210 212 215 217 218 219 218 218 218 217 217 217 215 213 211 211 212 214 216 218 221 223 226 229 233 237 243 249
94 97 100 102 104 106 108 110 110 110 116 123 127 133 140 143 145 145 144 148 153 157 161 167 173 179 184 187 189 191 193 193 195 196 195 194 195 198 200 200 198 196 195 195 194 194 194 196 200 204 205 208 209 206 204 204 206 207 209 212 214 215 216 215 214 214 214 214 214 213 211 210 210 211 213 215 217 219 221 224 226 228 232 238 245 250
97 100 105 107 107 108 109 110 110 114 119 124 127 132 138 144 148 149 149 150 153 157 162 168 173 177 181 185 188 190 192 194 195 196 194 193 195 198 199 198 196 195 194 194 192 192 193 196 200 203 205 207 205 201 201 203 205 207 210 212 213 213 213 212 211 212 213 212 212 210 210 210 211 212 214 215 217 219 221 223 226 228 234 241 247 252
97 100 105 111 113 114 114 114 115 119 123 126 129 134 140 146 150 153 154 154 155 158 161 166 171 174 178 182 184 185 189 193 194 194 195 195 196 198 198 197 195 194 193 192 191 191 192 196 199 201 204 204 200 197 199 202 204 207 210 212 212 212 211 210 211 212 213 212 211 210 209 210 212 213 214 215 217 218 220 222 226 231 237 244 250 257
100 102 107 114 118 121 122 122 122 124 126 129 133 137 142 147 151 154 156 157 157 157 159 164 168 171 174 176 175 174 179 184 184 188 197 198 197 197 197 195 193 192 192 191 190 190 192 195 197 200 202 200 196 196 198 200 203 208 210 210 210 210 209 210 212 213 213 212 211 210 210 212 213 214 214 215 217 219 221 224 229 235 241 248 254 261
104 107 112 119 123 126 129 129 128 130 132 135 138 141 143 146 150 153 156 157 155 156 160 162 158 157 163 167 167 167 171 172 173 183 196 198 197 196 195 194 192 191 191 190 189 189 191 193 196 200 201 197 194 195 198 199 203 207 209 210 210 210 209 210 212 213 213 212 211 211 212 213 214 214 215 217 220 222 225 229 234 238 245 251 257 263
110 115 121 125 127 131 134 134 134 136 137 138 141 143 145 146 148 152 155 156 155 156 158 155 144 137 146 154 156 160 169 174 177 186 193 195 196 196 194 192 192 191 190 189 188 189 191 193 196 200 198 194 194 197 198 199 203 206 208 209 210 210 211 212 213 213 213 212 211 212 213 214 214 215 217 221 224 227 230 233 237 243 249 254 259 265
119 126 131 133 134 137 139 138 139 140 140 141 143 145 146 147 149 153 155 156 155 153 151 146 139 136 143 150 151 155 169 180 185 190 194 195 195 194 193 191 191 191 189 188 188 190 192 194 198 199 195 193 196 198 199 200 203 206 208 209 210 211 211 212 213 214 213 211 212 212 213 214 216 218 221 224 227 231 234 237 242 247 252 257 262 268
125 136 140 140 141 142 142 141 142 143 144 145 146 147 148 150 152 155 156 155 154 150 146 144 144 147 152 158 161 164 173 183 187 190 193 194 193 193 192 191 190 190 189 188 189 191 193 196 198 197 194 195 198 199 199 201 204 207 210 211 211 211 211 212 212 213 212 212 212 213 215 217 219 222 226 229 233 236 239 243 248 252 257 261 266 271
129 147 148 147 147 146 144 144 146 147 148 148 149 149 150 153 155 157 157 157 154 150 148 150 154 161 167 169 169 169 174 182 188 192 193 193 192 191 191 190 190 189 188 188 190 192 195 197 199 196 194 196 199 200 201 202 204 208 211 213 213 212 212 212 213 214 214 214 215 216 218 221 224 228 231 234 238 242 246 250 254 258 261 265 270 275
129 155 155 152 151 149 148 148 150 150 151 151 152 152 153 156 160 161 160 160 158 156 156 157 159 168 175 176 174 174 176 180 186 191 193 193 191 190 190 190 190 189 189 190 192 194 196 199 199 197 196 198 200 201 202 203 205 208 211 213 214 213 212 213 215 215 216 216 218 220 222 225 229 233 237 240 244 248 251 255 258 262 265 269 273 276
128 159 162 157 154 153 153 154 154 154 154 155 156 157 158 160 163 164 164 164 164 163 162 163 165 171 179 181 181 181 181 184 187 189 190 190 190 189 189 189 190 189 190 192 194 196 198 200 200 198 198 201 203 204 205 205 206 209 212 214 214 214 214 215 217 217 218 219 221 223 226 229 233 236 240 244 248 251 255 258 262 266 269 271 271 271
134 160 167 164 161 160 160 160 159 158 158 160 161 162 163 164 166 167 167 169 170 169 168 169 170 172 177 183 187 188 188 188 189 190 189 188 188 189 189 189 189 190 191 193 196 198 201 201 201 199 200 202 205 206 207 207 209 211 214 216 216 215 215 216 218 219 219 220 222 225 228 231 234 238 242 246 250 254 258 261 263 265 267 269 270 270
144 160 172 171 169 168 167 165 163 162 162 164 166 167 167 168 169 169 170 173 175 175 174 173 173 174 176 181 188 192 192 191 191 192 191 189 188 188 188 188 189 190 192 195 198 200 202 203 202 201 202 204 206 207 207 209 211 213 216 217 218 218 217 217 218 221 222 222 224 227 230 233 236 240 245 250 254 257 260 264 267 269 271 272 271 272
155 162 175 180 178 175 173 170 167 166 166 168 170 171 171 171 172 173 174 178 180 182 182 181 178 179 182 184 188 192 192 190 191 193 192 191 190 189 188 188 189 191 193 196 199 202 203 204 203 203 204 205 206 207 208 209 211 213 216 218 220 220 220 220 220 221 223 225 227 230 232 235 238 242 246 250 254 258 262 267 270 273 274 273 271 271
Height
10439 10443 10447 10452 10457 10462 10469 10476 10482 10490 10497 10504 10509 10514 10524 10532 10537 10544 10554 10565 10565 10568 10579 10581 10581 10580 10585 10598 10606 10613 10620 10622 10630 10640 10648 10656 10661 10667 10674 10679 10684 10690 10694 10697 10701 10705 10711 10715 10717 10721 10726 10731 10736 10739 10743 10746 10748 10751 10753 10755 10757 10760 10763 10766 10769 10771 10772 10774 10776 10778 10779 10781 10782 10783 10783 10783 10784 10785 10786 10787 10786 10786 10785 10785 10785 10785
10430 10434 10438 10444 10449 10454 10460 10466 10473 10480 10485 10493 10499 10503 10513 10522 10528 10535 10546 10556 10556 10557 10566 10566 10566 10574 10585 10597 10603 10609 10616 10618 10625 10633 10641 10649 10653 10659 10668 10674 10679 10684 10688 10692 10696 10700 10707 10710 10712 10716 10721 10727 10731 10734 10739 10742 10744 10747 10750 10752 10754 10757 10759 10762 10765 10767 10769 10771 10772 10774 10776 10777 10779 10779 10779 10780 10781 10782 10783 10783 10783 10783 10783 10782 10782 10782
10421 10426 10431 10436 10441 10445 10450 10456 10463 10470 10476 10483 10488 10494 10504 10512 10518 10528 10538 10544 10545 10547 10552 10553 10561 10573 10582 10590 10597 10603 10607 10611 10616 10624 10633 10640 10646 10654 10663 10669 10675 10679 10684 10688 10692 10696 10702 10705 10707 10712 10718 10723 10727 10731 10735 10738 10741 10744 10746 10748 10750 10752 10754 10758 10762 10763 10766 10766 10766 10769 10773 10774 10775 10775 10775 10777 10778 10779 10780 10780 10780 10780 10780 10780 10780 10779
10414 10419 10423 10427 10432 10437 10442 10447 10453 10460 10466 10472 10479 10486 10494 10501 10510 10519 10524 10528 10535 10537 10539 10546 10558 10567 10574 10582 10590 10596 10599 10603 10608 10616 10626 10633 10642 10650 10657 10663 10670 10674 10678 10683 10687 10692 10697 10700 10702 10707 10713 10718 10722 10728 10732 10734 10737 10740 10741 10743 10745 10747 10750 10755 10758 10760 10762 10761 10761 10765 10769 10771 10772 10772 10772 10773 10775 10775 10776 10776 10777 10777 10777 10777 10776 10776
10408 10412 10415 10419 10424 10429 10433 10438 10444 10450 10456 10463 10470 10477 10483 10492 10502 10506 10510 10520 10529 10529 10531 10542 10550 10557 10568 10577 10585 10590 10591 10594 10600 10610 10620 10628 10637 10643 10648 10655 10663 10668 10673 10677 10682 10687 10692 10694 10697 10702 10706 10712 10718 10722 10726 10730 10733 10735 10737 10739 10741 10744 10748 10751 10754 10756 10758 10756 10756 10761 10765 10767 10769 10769 10768 10770 10771 10772 10772 10773 10773 10774 10774 10774 10773 10773
10400 10403 10406 10411 10415 10420 10424 10429 10435 10439 10446 10453 10459 10467 10474 10483 10490 10493 10502 10513 10517 10519 10524 10532 10540 10553 10565 10572 10578 10581 10581 10586 10595 10605 10614 10622 10629 10635 10641 10648 10656 10663 10668 10672 10676 10681 10687 10690 10692 10696 10701 10708 10713 10716 10720 10723 10727 10730 10733 10735 10738 10741 10744 10748 10751 10753 10753 10751 10752 10757 10761 10763 10765 10765 10765 10766 10767 10768 10769 10769 10770 10771 10771 10771 10770 10770
10391 10394 10398 10403 10407 10411 10415 10420 10426 10430 10436 10442 10449 10458 10463 10472 10478 10483 10493 10501 10504 10509 10516 10523 10536 10551 10558 10562 10570 10570 10572 10581 10589 10598 10607 10615 10622 10629 10636 10642 10649 10656 10661 10666 10670 10674 10681 10685 10689 10693 10697 10703 10708 10710 10712 10716 10721 10726 10729 10732 10735 10738 10741 10744 10747 10749 10749 10747 10748 10753 10757 10759 10761 10761 10761 10762 10763 10764 10765 10766 10767 10768 10768 10768 10767 10767
10384 10388 10391 10395 10399 10402 10406 10411 10417 10422 10426 10433 10442 10447 10452 10461 10467 10473 10482 10490 10495 10499 10508 10520 10532 10541 10547 10556 10564 10561 10566 10576 10582 10591 10602 10609 10616 10624 10631 10638 10643 10649 10654 10660 10664 10668 10674 10680 10684 10689 10693 10698 10702 10704 10706 10711 10717 10721 10724 10728 10731 10734 10737 10740 10743 10744 10744 10743 10744 10749 10752 10754 10757 10758 10757 10758 10759 10760 10761 10762 10763 10764 10764 10764 10764 10763
10377 10382 10384 10387 10390 10392 10397 10402 10407 10412 10416 10425 10433 10435 10442 10451 10457 10464 10471 10478 10484 10488 10502 10516 10520 10529 10544 10553 10555 10555 10562 10570 10577 10588 10597 10602 10610 10617 10624 10631 10636 10642 10647 10652 10657 10660 10666 10672 10678 10683 10687 10691 10695 10699 10701 10706 10712 10717 10720 10724 10728 10731 10733 10736 10739 10740 10739 10739 10740 10744 10747 10749 10752 10753 10753 10754 10755 10756 10758 10759 10760 10761 10761 10761 10761 10760
10372 10375 10376 10379 10381 10384 10389 10393 10399 10403 10408 10417 10422 10424 10433 10441 10447 10455 10460 10468 10474 10480 10498 10510 10512 10525 10541 10543 10543 10549 10557 10566 10575 10585 10590 10595 10601 10607 10614 10621 10627 10634 10640 10645 10649 10653 10658 10665 10671 10676 10680 10684 10689 10695 10698 10700 10707 10713 10716 10720 10724 10726 10729 10733 10734 10735 10735 10736 10736 10739 10743 10745 10748 10749 10749 10750 10751 10753 10755 10756 10757 10757 10757 10757 10757 10756
10366 10368 10370 10372 10374 10377 10381 10386 10391 10395 10401 10409 10412 10416 10424 10430 10437 10444 10450 10458 10463 10476 10496 10504 10506 10518 10528 10529 10535 10547 10556 10563 10571 10576 10578 10582 10588 10595 10603 10611 10619 10626 10633 10638 10642 10647 10652 10658 10664 10669 10674 10679 10684 10690 10694 10696 10702 10707 10710 10715 10718 10721 10725 10728 10729 10730 10731 10731 10732 10734 10737 10740 10743 10745 10745 10746 10748 10749 10751 10753 10754 10754 10754 10754 10754 10753
10360 10362 10364 10367 10369 10372 10376 10380 10384 10387 10394 10400 10403 10409 10414 10420 10427 10432 10440 10446 10455 10477 10494 10493 10496 10504 10514 10524 10534 10544 10551 10552 10556 10559 10563 10570 10579 10589 10598 10605 10613 10620 10625 10631 10635 10640 10645 10651 10658 10663 10668 10673 10679 10685 10690 10693 10697 10701 10705 10709 10712 10716 10720 10723 10724 10725 10726 10727 10727 10728 10732 10735 10738 10740 10741 10742 10744 10746 10748 10749 10750 10750 10751 10751 10750 10749
10354 10356 10359 10362 10365 10368 10370 10374 10378 10381 10387 10391 10395 10401 10405 10411 10417 10423 10432 10439 10454 10477 10482 10478 10484 10493 10508 10523 10526 10532 10537 10539 10546 10553 10558 10566 10575 10583 10591 10598 10605 10611 10616 10623 10629 10633 10638 10645 10651 10658 10663 10667 10673 10680 10684 10687 10691 10696 10700 10703 10708 10711 10714 10717 10720 10721 10722 10721 10721 10722 10726 10730 10733 10736 10737 10738 10740 10742 10744 10746 10747 10747 10747 10747 10746 10746
10349 10351 10354 10357 10360 10363 10365 10368 10372 10375 10380 10384 10389 10393 10397 10403 10409 10418 10427 10434 10451 10466 10461 10461 10469 10481 10501 10512 10512 10521 10530 10536 10544 10548 10551 10558 10566 10575 10583 10590 10597 10603 10609 10616 10622 10627 10633 10640 10645 10651 10657 10661 10667 10673 10677 10681 10686 10691 10695 10699 10703 10706 10708 10712 10715 10717 10717 10716 10716 10717 10721 10725 10728 10731 10733 10734 10736 10738 10740 10742 10743 10743 10743 10743 10742 10742
10344 10346 10349 10352 10354 10357 10360 10363 10366 10370 10375 10379 10384 10387 10392 10398 10405 10414 10418 10424 10440 10445 10438 10444 10455 10472 10495 10502 10507 10519 10525 10529 10535 10536 10541 10551 10559 10568 10577 10584 10590 10596 10603 10610 10616 10622 10628 10633 10639 10645 10651 10656 10662 10666 10671 10677 10682 10686 10691 10694 10698 10701 10703 10707 10709 10711 10711 10711 10711 10714 10717 10720 10723 10726 10728 10729 10732 10734 10736 10738 10739 10739 10739 10739 10739 10739
10339 10341 10344 10347 10348 10351 10355 10357 10361 10366 10369 10373 10376 10381 10388 10392 10394 10400 10404 10413 10425 10422 10420 10433 10450 10472 10491 10496 10506 10514 10515 10520 10525 10529 10538 10546 10553 10561 10569 10576 10583 10590 10598 10604 10610 10617 10621 10627 10633 10639 10645 10651 10657 10661 10666 10673 10677 10682 10686 10689 10693 10696 10698 10702 10704 10705 10705 10705 10707 10710 10713 10716 10718 10721 10723 10725 10728 10730 10732 10734 10735 10735 10735 10736 10736 10735
10335 10337 10339 10341 10343 10346 10349 10351 10355 10359 10362 10365 10369 10374 10379 10379 10382 10391 10400 10407 10410 10408 10415 10434 10453 10471 10483 10490 10501 10506 10507 10512 10518 10524 10532 10537 10545 10552 10560 10569 10576 10583 10591 10597 10604 10610 10615 10621 10627 10633 10639 10646 10652 10656 10662 10668 10672 10676 10680 10684 10687 10691 10695 10698 10699 10698 10699 10700 10703 10706 10709 10712 10714 10717 10718 10720 10723 10726 10728 10730 10731 10731 10732 10732 10732 10732
10331 10333 10335 10337 10339 10341 10343 10346 10348 10351 10354 10358 10362 10366 10369 10372 10381 10392 10397 10398 10399 10406 10423 10440 10454 10465 10473 10484 10494 10496 10499 10503 10510 10518 10524 10530 10537 10543 10552 10562 10569 10577 10584 10590 10598 10604 10609 10615 10621 10628 10634 10640 10647 10652 10656 10662 10666 10670 10674 10679 10683 10687 10691 10693 10692 10692 10694 10697 10699 10702 10705 10708 10710 10712 10714 10716 10719 10721 10723 10725 10726 10727 10728 10728 10728 10728
10328 10329 10331 10333 10335 10336 10338 10340 10342 10345 10347 10350 10354 10359 10363 10369 10376 10380 10382 10384 10390 10406 10424 10434 10445 10457 10467 10478 10484 10486 10490 10494 10501 10510 10516 10521 10528 10534 10545 10555 10563 10571 10579 10586 10593 10599 10605 10611 10616 10623 10629 10635 10642 10647 10651 10656 10660 10665 10670 10674 10678 10682 10685 10685 10686 10688 10692 10694 10696 10699 10702 10704 10706 10708 10710 10712 10715 10717 10719 10720 10722 10724 10724 10724 10724 10724
10325 10326 10328 10330 10331 10332 10334 10335 10337 10339 10342 10344 10348 10352 10357 10361 10363 10363 10367 10374 10383 10400 10412 10419 10433 10450 10459 10466 10473 10478 10483 10486 10493 10503 10508 10513 10520 10529 10539 10548 10557 10566 10573 10582 10589 10595 10602 10607 10612 10618 10624 10630 10636 10641 10647 10651 10656 10662 10666 10670 10673 10676 10678 10680 10684 10687 10689 10691 10692 10694 10697 10700 10702 10704 10706 10708 10710 10713 10715 10716 10718 10719 10720 10720 10720 10721
10323 10324 10325 10326 10328 10329 10330 10331 10333 10335 10337 10339 10341 10345 10349 10351 10353 10355 10361 10372 10383 10394 10402 10412 10429 10441 10444 10451 10464 10471 10475 10479 10486 10495 10502 10508 10515 10524 10532 10540 10550 10559 10568 10577 10584 10591 10598 10603 10609 10614 10620 10626 10631 10636 10642 10647 10653 10658 10661 10666 10669 10671 10674 10678 10681 10683 10684 10686 10688 10691 10693 10695 10698 10700 10702 10704 10706 10709 10711 10712 10714 10715 10716 10716 10716 10717
10321 10322 10322 10323 10324 10325 10326 10327 10329 10330 10332 10335 10336 10339 10342 10344 10348 10353 10360 10371 10379 10385 10393 10404 10418 10426 10430 10441 10454 10460 10466 10473 10478 10486 10496 10503 10509 10516 10525 10534 10545 10555 10564 10573 10581 10588 10595 10600 10607 10611 10616 10622 10627 10633 10639 10644 10650 10654 10658 10662 10664 10667 10671 10675 10678 10679 10680 10682 10685 10687 10689 10691 10694 10696 10698 10699 10702 10704 10706 10708 10710 10712 10712 10712 10713 10714
10320 10320 10320 10321 10321 10322 10324 10325 10326 10327 10329 10331 10333 10335 10338 10342 10346 10351 10356 10364 10370 10376 10385 10394 10405 10416 10425 10435 10444 10451 10460 10466 10469 10478 10489 10497 10504 10512 10520 10530 10540 10551 10561 10570 10578 10585 10591 10597 10603 10608 10613 10619 10625 10631 10635 10641 10646 10650 10654 10657 10660 10665 10668 10671 10673 10675 10677 10679 10681 10683 10685 10688 10690 10692 10693 10695 10697 10700 10702 10704 10706 10708 10708 10708 10709 10710
10318 10319 10319 10319 10320 10321 10322 10323 10324 10325 10326 10328 10330 10332 10335 10339 10344 10348 10352 10357 10364 10373 10381 10389 10401 10410 10416 10424 10432 10440 10450 10457 10461 10471 10483 10493 10501 10508 10516 10526 10536 10548 10558 10567 10575 10582 10588 10593 10599 10605 10611 10617 10623 10628 10632 10638 10642 10646 10650 10653 10658 10662 10664 10666 10669 10671 10673 10675 10677 10679 10681 10683 10685 10687 10689 10690 10693 10695 10697 10699 10702 10704 10704 10704 10705 10707
10318 10318 10318 10318 10319 10320 10320 10321 10322 10323 10324 10326 10327 10329 10333 10336 10340 10344 10348 10353 10363 10370 10376 10385 10396 10401 10404 10411 10418 10427 10439 10448 10456 10466 10478 10488 10495 10502 10512 10522 10533 10545 10555 10563 10570 10578 10584 10590 10596 10603 10609 10614 10620 10625 10630 10635 10639 10643 10647 10651 10655 10657 10659 10662 10665 10667 10669 10671 10673 10676 10677 10679 10681 10682 10684 10686 10688 10691 10693 10695 10698 10699 10700 10700 10702 10703
10317 10317 10317 10317 10318 10318 10319 10319 10320 10321 10323 10324 10325 10328 10330 10333 10337 10340 10345 10352 10359 10362 10368 10379 10386 10388 10391 10398 10405 10417 10431 10441 10451 10460 10471 10481 10490 10497 10507 10518 10530 10541 10551 10559 10567 10574 10581 10588 10594 10600 10606 10611 10616 10621 10626 10631 10636 10640 10644 10647 10650 10653 10655 10658 10660 10662 10665 10668 10670 10672 10673 10675 10676 10678 10680 10682 10684 10686 10689 10692 10694 10695 10696 10697 10698 10700
10318 10318 10318 10318 10317 10318 10318 10318 10319 10320 10321 10322 10324 10326 10328 10331 10334 10338 10342 10345 10347 10352 10362 10371 10374 10374 10379 10386 10395 10409 10422 10432 10442 10452 10462 10474 10484 10493 10503 10515 10527 10538 10547 10556 10564 10571 10579 10586 10592 10597 10602 10607 10612 10617 10623 10628 10632 10637 10640 10643 10646 10649 10652 10655 10657 10659 10662 10664 10666 10667 10668 10670 10672 10674 10676 10678 10680 10683 10685 10688 10689 10691 10692 10693 10695 10696
10320 10320 10319 10318 10318 10318 10318 10318 10318 10319 10320 10321 10323 10325 10326 10329 10331 10334 10336 10338 10344 10351 10358 10362 10362 10364 10372 10382 10394 10408 10418 10427 10436 10446 10457 10470 10482 10492 10502 10512 10524 10535 10544 10554 10562 10569 10576 10583 10588 10593 10598 10603 10608 10613 10619 10624 10628 10632 10636 10639 10642 10646 10649 10651 10653 10655 10658 10660 10662 10662 10664 10666 10669 10671 10673 10674 10677 10679 10681 10683 10685 10687 10688 10690 10692 10693
10322 10321 10320 10319 10318 10318 10318 10318 10319 10319 10319 10320 10322 10323 10326 10328 10330 10333 10336 10340 10345 10350 10353 10356 10358 10362 10373 10386 10398 10409 10418 10424 10433 10444 10456 10469 10482 10493 10501 10510 10522 10533 10542 10552 10560 10567 10573 10579 10584 10589 10594 10599 10604 10609 10614 10619 10624 10628 10632 10636 10639 10642 10645 10647 10649 10651 10654 10655 10656 10658 10660 10663 10665 10667 10669 10671 10673 10675 10677 10680 10681 10683 10685 10687 10689 10690
10323 10322 10321 10320 10320 10320 10320 10319 10319 10319 10320 10320 10321 10323 10325 10328 10330 10333 10337 10340 10343 10346 10350 10354 10356 10365 10381 10394 10402 10410 10416 10424 10434 10447 10458 10471 10483 10493 10500 10510 10522 10532 10541 10551 10558 10564 10570 10575 10580 10585 10591 10595 10600 10605 10610 10615 10620 10624 10628 10632 10635 10637 10640 10642 10645 10647 10649 10650 10651 10654 10657 10660 10662 10663 10665 10668 10670 10672 10674 10676 10678 10681 10682 10684 10686 10686
10324 10324 10323 10322 10322 10321 10321 10321 10321 10321 10321 10321 10322 10324 10326 10328 10330 10332 10335 10338 10342 10346 10349 10353 10361 10375 10390 10398 10405 10413 10421 10429 10440 10451 10462 10473 10483 10492 10501 10511 10521 10531 10540 10548 10555 10561 10566 10572 10577 10583 10588 10592 10597 10601 10606 10611 10615 10619 10623 10627 10630 10632 10635 10638 10640 10642 10644 10645 10648 10651 10654 10656 10658 10660 10662 10664 10667 10669 10671 10673 10676 10678 10680 10681 10682 10683
10326 10325 10324 10324 10324 10324 10324 10324 10324 10324 10324 10324 10325 10326 10328 10330 10332 10334 10337 10340 10344 10348 10354 10362 10374 10387 10397 10404 10412 10421 10428 10435 10444 10453 10462 10471 10481 10492 10502 10510 10518 10528 10537 10545 10553 10559 10564 10569 10575 10580 10585 10589 10593 10598 10603 10607 10611 10615 10620 10623 10625 10628 10631 10634 10636 10638 10640 10642 10645 10648 10651 10653 10654 10656 10659 10661 10664 10666 10669 10671 10673 10675 10677 10678 10679 10680
10328 10328 10327 10327 10326 10327 10327 10327 10326 10326 10326 10327 10329 10330 10332 10334 10337 10339 10342 10345 10349 10354 10361 10371 10381 10391 10399 10406 10413 10421 10429 10436 10444 10451 10460 10469 10481 10493 10500 10506 10515 10525 10535 10543 10550 10556 10561 10567 10573 10578 10582 10587 10591 10595 10599 10603 10607 10611 10615 10617 10620 10624 10627 10630 10632 10634 10637 10640 10643 10645 10647 10649 10651 10654 10656 10659 10661 10664 10666 10668 10670 10672 10674 10675 10676 10677
10331 10330 10330 10330 10330 10330 10330 10330 10329 10329 10329 10331 10332 10333 10335 10338 10341 10344 10348 10353 10357 10362 10368 10375 10383 10390 10397 10403 10411 10419 10428 10435 10442 10450 10459 10470 10481 10490 10495 10502 10512 10523 10533 10540 10547 10553 10559 10564 10570 10575 10579 10584 10588 10592 10596 10600 10605 10609 10612 10615 10619 10622 10625 10628 10630 10632 10635 10638 10640 10642 10644 10646 10648 10651 10654 10656 10659 10661 10663 10665 10667 10670 10671 10672 10673 10674
10334 10334 10334 10333 10333 10333 10333 10333 10332 10332 10332 10333 10335 10337 10339 10342 10345 10349 10354 10358 10363 10368 10373 10379 10386 10392 10398 10404 10413 10420 10427 10435 10444 10451 10459 10470 10481 10488 10494 10502 10512 10522 10531 10538 10544 10551 10556 10562 10568 10573 10578 10583 10587 10591 10595 10600 10604 10607 10610 10614 10617 10620 10622 10624 10627 10630 10633 10635 10637 10639 10641 10643 10646 10648 10651 10653 10656 10658 10660 10662 10665 10667 10668 10669 10670 10671
10338 10337 10337 10337 10336 10336 10336 10335 10335 10336 10337 10338 10339 10341 10343 10346 10350 10354 10358 10363 10368 10372 10378 10384 10390 10396 10402 10408 10415 10422 10429 10436 10444 10451 10460 10472 10482 10488 10495 10503 10513 10522 10529 10536 10542 10548 10554 10560 10566 10571 10577 10582 10586 10590 10595 10599 10602 10605 10608 10611 10613 10616 10618 10621 10625 10628 10630 10632 10634 10636 10638 10641 10643 10646 10648 10651 10653 10655 10657 10660 10662 10664 10665 10666 10667 10668
10341 10340 10340 10340 10339 10339 10339 10338 10338 10340 10341 10343 10344 10346 10348 10351 10354 10357 10362 10367 10371 10375 10381 10387 10393 10399 10404 10409 10414 10420 10426 10435 10443 10452 10462 10473 10481 10487 10494 10503 10513 10522 10528 10535 10541 10547 10553 10559 10564 10570 10575 10579 10584 10588 10593 10597 10600 10602 10605 10608 10610 10613 10616 10619 10622 10624 10626 10629 10631 10633 10636 10639 10641 10643 10646 10648 10651 10653 10655 10657 10659 10661 10662 10663 10664 10665
10344 10344 10343 10343 10343 10342 10342 10342 10342 10344 10346 10347 10349 10351 10353 10355 10357 10360 10363 10368 10373 10378 10382 10387 10392 10398 10403 10409 10414 10421 10428 10437 10445 10453 10463 10474 10481 10487 10494 10503 10513 10521 10528 10534 10540 10546 10553 10559 10564 10569 10573 10577 10582 10587 10592 10595 10598 10600 10603 10605 10608 10610 10613 10616 10619 10621 10623 10626 10628 10631 10634 10636 10639 10641 10644 10646 10648 10650 10652 10654 10656 10658 10659 10660 10661 10662
10348 10347 10347 10346 10346 10346 10346 10346 10347 10348 10350 10351 10353 10355 10358 10359 10360 10362 10365 10370 10376 10381 10385 10390 10395 10400 10406 10413 10420 10429 10437 10444 10450 10458 10467 10475 10480 10485 10493 10503 10512 10520 10527 10533 10539 10545 10551 10556 10561 10566 10571 10575 10581 10586 10590 10593 10596 10598 10600 10603 10606 10609 10611 10614 10616 10618 10621 10623 10626 10629 10632 10634 10637 10639 10642 10644 10646 10648 10650 10652 10653 10655 10656 10657 10658 10659
10352 10351 10351 10350 10350 10350 10350 10350 10352 10353 10354 10355 10357 10360 10362 10364 10365 10367 10370 10373 10377 10383 10391 10397 10401 10405 10411 10418 10427 10437 10445 10451 10458 10467 10472 10474 10478 10485 10493 10502 10511 10518 10525 10531 10538 10543 10549 10554 10560 10565 10569 10574 10579 10583 10587 10590 10593 10596 10598 10601 10604 10607 10609 10612 10614 10616 10619 10622 10625 10628 10630 10632 10635 10637 10639 10641 10643 10645 10647 10649 10650 10652 10653 10654 10655 10656
10356 10355 10355 10355 10355 10354 10354 10355 10357 10358 10359 10360 10362 10364 10367 10370 10372 10374 10376 10378 10383 10389 10396 10401 10406 10411 10417 10425 10434 10442 10448 10456 10464 10470 10472 10474 10479 10486 10494 10502 10510 10517 10523 10529 10535 10541 10547 10553 10558 10563 10567 10571 10576 10579 10583 10587 10590 10592 10595 10599 10602 10604 10607 10610 10613 10615 10618 10621 10623 10626 10628 10631 10633 10635 10637 10639 10641 10643 10644 10646 10647 10648 10650 10651 10652 10652
10360 10359 10359 10359 10359 10359 10359 10359 10360 10362 10363 10364 10366 10369 10372 10375 10379 10381 10383 10386 10390 10396 10401 10406 10412 10418 10424 10431 10439 10444 10449 10457 10465 10468 10471 10476 10480 10486 10494 10502 10509 10515 10521 10527 10533 10538 10544 10550 10555 10559 10563 10567 10571 10575 10578 10582 10586 10589 10592 10595 10598 10602 10605 10608 10610 10613 10616 10619 10622 10624 10626 10628 10631 10633 10634 10636 10638 10639 10641 10642 10644 10645 10647 10648 10648 10649
10364 10363 10363 10363 10363 10363 10363 10363 10364 10365 10367 10368 10371 10374 10377 10380 10384 10388 10390 10393 10396 10401 10408 10414 10419 10424 10429 10435 10442 10448 10455 10462 10466 10467 10471 10476 10481 10487 10494 10501 10507 10513 10519 10525 10531 10536 10542 10547 10551 10555 10560 10564 10568 10571 10575 10578 10581 10585 10588 10592 10596 10599 10603 10605 10608 10611 10614 10617 10620 10622 10624 10626 10628 10629 10631 10632 10634 10636 10637 10639 10640 10642 10643 10644 10645 10645
10368 10367 10367 10366 10366 10367 10367 10367 10368 10370 10371 10373 10376 10379 10382 10385 10389 10392 10396 10400 10403 10407 10413 10419 10424 10429 10434 10438 10443 10449 10456 10462 10466 10467 10470 10475 10481 10488 10495 10500 10506 10511 10517 10523 10529 10534 10539 10544 10548 10552 10557 10562 10565 10569 10572 10576 10579 10582 10585 10589 10592 10596 10599 10602 10605 10608 10611 10614 10616 10618 10620 10622 10624 10625 10627 10629 10631 10632 10634 10635 10637 10638 10639 10640 10641 10641
10371 10371 10370 10370 10370 10370 10371 10372 10373 10375 10376 10378 10380 10383 10387 10390 10393 10396 10400 10404 10409 10413 10417 10421 10425 10430 10435 10438 10442 10447 10453 10458 10463 10466 10469 10475 10482 10489 10495 10500 10506 10511 10517 10522 10527 10532 10536 10541 10545 10550 10554 10558 10562 10566 10570 10573 10576 10579 10583 10586 10589 10592 10595 10598 10601 10605 10608 10610 10612 10614 10616 10618 10620 10622 10623 10625 10627 10628 10630 10632 10633 10634 10636 10636 10637 10637
10375 10374 10373 10373 10374 10374 10375 10376 10378 10379 10381 10383 10386 10388 10392 10394 10397 10400 10403 10407 10411 10415 10418 10421 10425 10428 10432 10436 10441 10446 10450 10455 10460 10465 10469 10475 10483 10490 10496 10501 10505 10511 10516 10521 10526 10531 10535 10539 10543 10548 10552 10556 10559 10563 10566 10570 10574 10577 10580 10583 10586 10590 10593 10596 10598 10601 10604 10607 10609 10611 10613 10615 10617 10618 10620 10622 10623 10625 10627 10628 10629 10631 10632 10632 10633 10633
10378 10378 10377 10377 10377 10378 10379 10381 10382 10383 10386 10388 10390 10393 10395 10398 10400 10402 10406 10410 10413 10414 10416 10420 10424 10427 10431 10435 10439 10444 10448 10452 10457 10463 10468 10475 10482 10489 10495 10501 10505 10510 10516 10520 10525 10530 10534 10538 10542 10546 10550 10554 10557 10560 10563 10567 10570 10574 10577 10580 10584 10587 10590 10593 10595 10598 10601 10603 10605 10607 10609 10611 10613 10615 10617 10618 10620 10621 10623 10624 10625 10627 10627 10628 10629 10629
10380 10381 10381 10380 10381 10381 10382 10383 10384 10387 10389 10392 10394 10396 10397 10400 10403 10405 10409 10412 10413 10414 10417 10420 10423 10427 10431 10435 10439 10443 10447 10451 10455 10460 10466 10473 10480 10487 10493 10499 10505 10511 10516 10520 10525 10529 10533 10537 10541 10545 10549 10552 10555 10558 10561 10564 10568 10571 10574 10578 10581 10585 10588 10590 10592 10595 10598 10600 10602 10604 10606 10608 10610 10611 10613 10614 10616 10617 10618 10620 10621 10622 10623 10623 10624 10624
10380 10382 10383 10383 10383 10384 10384 10385 10387 10390 10392 10394 10396 10398 10400 10403 10406 10409 10412 10414 10415 10416 10418 10421 10424 10428 10432 10436 10439 10443 10447 10451 10456 10460 10464 10470 10477 10485 10491 10497 10503 10509 10515 10520 10524 10528 10532 10536 10540 10543 10547 10549 10552 10555 10559 10562 10566 10569 10572 10575 10579 10581 10584 10585 10587 10590 10593 10596 10598 10600 10602 10604 10606 10607 10608 10610 10611 10613 10614 10615 10616 10617 10618 10618 10619 10619
10381 10383 10384 10384 10385 10386 10387 10388 10390 10392 10395 10397 10399 10401 10403 10406 10409 10411 10414 10417 10418 10419 10420 10423 10426 10430 10433 10437 10440 10444 10448 10453 10458 10462 10465 10470 10476 10483 10489 10496 10502 10508 10513 10518 10522 10526 10530 10534 10538 10541 10544 10546 10549 10552 10556 10560 10564 10567 10570 10573 10575 10577 10579 10579 10581 10585 10588 10591 10594 10597 10599 10601 10603 10604 10605 10606 10607 10608 10609 10610 10612 10613 10614 10614 10613 10614
10382 10384 10386 10386 10387 10388 10390 10391 10393 10395 10397 10399 10401 10404 10407 10409 10412 10414 10416 10418 10420 10422 10423 10425 10429 10432 10435 10438 10441 10445 10449 10455 10460 10464 10468 10472 10477 10482 10488 10494 10500 10506 10511 10516 10520 10524 10528 10531 10534 10537 10540 10543 10546 10550 10553 10557 10560 10563 10566 10568 10571 10573 10574 10576 10578 10581 10585 10589 10591 10594 10596 10598 10599 10600 10601 10602 10602 10603 10605 10606 10607 10608 10608 10608 10608 10609